N256VM SCVM-SCEL

Flight info

Callsign N256VM
Flight time 0h 23m
Altitude 8000
Route VM020 DCT OLMUE DCT EL222 DCT TEMUS
Aircraft SR22/L-SDGRY/S

Departure

Time 2026-04-23 18:45
Airport Viña del Mar Airport (SCVM)

Arrival

Time 2026-04-23 19:08
Airport Comodoro Arturo Merino Benítez International Airport (SCEL)
Time Latitude Longitude Altitude Speed Heading
2026-04-23 18:28 -32.95540 -71.48361 461 ft 0 kts 40°
2026-04-23 18:43 -32.95513 -71.48367 461 ft 11 kts 296°
2026-04-23 18:43 -32.95493 -71.48473 461 ft 15 kts 269°
2026-04-23 18:43 -32.95433 -71.48568 459 ft 18 kts 19°
2026-04-23 18:44 -32.95294 -71.48384 459 ft 57 kts 50°
2026-04-23 18:44 -32.94968 -71.47894 458 ft 96 kts 52°
2026-04-23 18:44 -32.94519 -71.47195 571 ft 110 kts 51°
2026-04-23 18:44 -32.94051 -71.46445 760 ft 120 kts 49°
2026-04-23 18:45 -32.93526 -71.45623 997 ft 130 kts 47°
2026-04-23 18:45 -32.92947 -71.44746 1274 ft 138 kts 50°
2026-04-23 18:45 -32.92398 -71.43799 1514 ft 145 kts 71°
2026-04-23 18:45 -32.92272 -71.42607 1900 ft 144 kts 88°
2026-04-23 18:46 -32.92141 -71.41424 2268 ft 144 kts 84°
2026-04-23 18:46 -32.91979 -71.40256 2627 ft 145 kts 84°
2026-04-23 18:46 -32.91814 -71.39065 2938 ft 145 kts 84°
2026-04-23 18:46 -32.91654 -71.37881 3290 ft 145 kts 84°
2026-04-23 18:47 -32.91492 -71.36694 3645 ft 145 kts 84°
2026-04-23 18:47 -32.91332 -71.35501 3969 ft 146 kts 83°
2026-04-23 18:47 -32.91176 -71.34301 4258 ft 147 kts 83°
2026-04-23 18:47 -32.91019 -71.33094 4559 ft 147 kts 82°
2026-04-23 18:48 -32.90861 -71.31888 4815 ft 148 kts 82°
2026-04-23 18:48 -32.90701 -71.30690 5081 ft 148 kts 81°
2026-04-23 18:48 -32.90538 -71.29475 5344 ft 149 kts 81°
2026-04-23 18:48 -32.90378 -71.28249 5599 ft 150 kts 81°
2026-04-23 18:49 -32.90214 -71.27023 5862 ft 150 kts 80°
2026-04-23 18:49 -32.90054 -71.25802 6141 ft 151 kts 79°
2026-04-23 18:49 -32.89888 -71.24557 6420 ft 152 kts 79°
2026-04-23 18:49 -32.89724 -71.23319 6699 ft 153 kts 78°
2026-04-23 18:50 -32.89614 -71.22486 6891 ft 153 kts 78°
2026-04-23 18:50 -32.89393 -71.20816 7268 ft 154 kts 78°
2026-04-23 18:50 -32.89226 -71.19546 7554 ft 155 kts 78°
2026-04-23 18:50 -32.89055 -71.18270 7826 ft 156 kts 78°
2026-04-23 18:51 -32.88886 -71.17010 8105 ft 156 kts 78°
2026-04-23 18:51 -32.88717 -71.15724 8356 ft 157 kts 78°
2026-04-23 18:51 -32.88549 -71.14450 8626 ft 157 kts 78°
2026-04-23 18:51 -32.88380 -71.13152 8886 ft 158 kts 78°
2026-04-23 18:52 -32.88209 -71.11874 9215 ft 158 kts 77°
2026-04-23 18:52 -32.88036 -71.10580 9510 ft 159 kts 77°
2026-04-23 18:52 -32.87863 -71.09271 9815 ft 160 kts 77°
2026-04-23 18:52 -32.87684 -71.07950 10102 ft 161 kts 77°
2026-04-23 18:53 -32.87510 -71.06643 10340 ft 162 kts 77°
2026-04-23 18:53 -32.87338 -71.05311 10662 ft 162 kts 77°
2026-04-23 18:53 -32.87161 -71.03998 10972 ft 163 kts 77°
2026-04-23 18:53 -32.87024 -71.02654 11257 ft 166 kts 86°
2026-04-23 18:54 -32.87340 -71.01333 11485 ft 171 kts 116°
2026-04-23 18:54 -32.88053 -71.00181 11769 ft 173 kts 128°
2026-04-23 18:54 -32.88834 -70.99092 12048 ft 173 kts 129°
2026-04-23 18:54 -32.89614 -70.97998 12355 ft 173 kts 129°
2026-04-23 18:55 -32.90383 -70.96906 12611 ft 175 kts 128°
2026-04-23 18:55 -32.91197 -70.95742 12448 ft 187 kts 129°
2026-04-23 18:55 -32.92037 -70.94541 12092 ft 190 kts 129°
2026-04-23 18:55 -32.92877 -70.93335 11735 ft 192 kts 129°
2026-04-23 18:56 -32.93445 -70.92520 11493 ft 192 kts 128°
2026-04-23 18:56 -32.94577 -70.90886 11019 ft 192 kts 128°
2026-04-23 18:56 -32.95432 -70.89647 10659 ft 193 kts 128°
2026-04-23 18:56 -32.96284 -70.88416 10306 ft 191 kts 128°
2026-04-23 18:57 -32.97114 -70.87216 9955 ft 189 kts 128°
2026-04-23 18:57 -32.97955 -70.86000 9563 ft 189 kts 128°
2026-04-23 18:57 -32.98785 -70.84795 9248 ft 184 kts 128°
2026-04-23 18:57 -32.99574 -70.83645 8994 ft 178 kts 128°
2026-04-23 18:58 -33.00510 -70.82700 8732 ft 176 kts 154°
2026-04-23 18:58 -33.01659 -70.82306 8483 ft 172 kts 176°
2026-04-23 18:58 -33.02849 -70.82293 8235 ft 169 kts 182°
2026-04-23 18:58 -33.04030 -70.82284 7989 ft 169 kts 180°
2026-04-23 18:59 -33.05192 -70.82213 7753 ft 169 kts 178°
2026-04-23 18:59 -33.06355 -70.82123 7507 ft 165 kts 178°
2026-04-23 18:59 -33.07494 -70.82043 7265 ft 162 kts 178°
2026-04-23 18:59 -33.08608 -70.81970 7024 ft 160 kts 178°
2026-04-23 19:00 -33.09713 -70.81902 6782 ft 157 kts 178°
2026-04-23 19:00 -33.10786 -70.81839 6548 ft 155 kts 178°
2026-04-23 19:00 -33.11858 -70.81775 6303 ft 154 kts 178°
2026-04-23 19:00 -33.12940 -70.81716 6048 ft 155 kts 178°
2026-04-23 19:01 -33.13999 -70.81658 5807 ft 153 kts 178°
2026-04-23 19:01 -33.15065 -70.81599 5559 ft 152 kts 178°
2026-04-23 19:01 -33.16119 -70.81541 5304 ft 152 kts 178°
2026-04-23 19:01 -33.17138 -70.81483 5201 ft 141 kts 178°
2026-04-23 19:02 -33.17777 -70.81447 5127 ft 137 kts 178°
2026-04-23 19:02 -33.19004 -70.81378 4978 ft 129 kts 178°
2026-04-23 19:02 -33.19883 -70.81330 4869 ft 125 kts 178°
2026-04-23 19:02 -33.20751 -70.81282 4758 ft 123 kts 178°
2026-04-23 19:03 -33.21601 -70.81234 4650 ft 121 kts 178°
2026-04-23 19:03 -33.22426 -70.81185 4540 ft 119 kts 178°
2026-04-23 19:03 -33.23249 -70.81139 4436 ft 118 kts 178°
2026-04-23 19:03 -33.24074 -70.81095 4334 ft 118 kts 178°
2026-04-23 19:04 -33.24885 -70.81051 4231 ft 117 kts 178°
2026-04-23 19:04 -33.25702 -70.81007 4136 ft 117 kts 178°
2026-04-23 19:04 -33.26509 -70.80962 4039 ft 117 kts 178°
2026-04-23 19:04 -33.27326 -70.80917 3918 ft 119 kts 178°
2026-04-23 19:05 -33.28167 -70.80871 3777 ft 121 kts 178°
2026-04-23 19:05 -33.29016 -70.80844 3623 ft 124 kts 180°
2026-04-23 19:05 -33.29883 -70.80789 3455 ft 126 kts 176°
2026-04-23 19:05 -33.30766 -70.80724 3255 ft 127 kts 178°
2026-04-23 19:06 -33.31655 -70.80663 3100 ft 128 kts 177°
2026-04-23 19:06 -33.32539 -70.80611 3037 ft 128 kts 178°
2026-04-23 19:06 -33.33433 -70.80563 2885 ft 129 kts 179°
2026-04-23 19:06 -33.34317 -70.80522 2767 ft 124 kts 179°
2026-04-23 19:07 -33.35067 -70.80500 2503 ft 101 kts 181°
2026-04-23 19:07 -33.35778 -70.80498 2057 ft 102 kts 172°
2026-04-23 19:07 -33.36444 -70.80435 1760 ft 87 kts 171°
2026-04-23 19:07 -33.37026 -70.80371 1613 ft 81 kts 176°
2026-04-23 19:08 -33.37556 -70.80348 1558 ft 68 kts 177°
2026-04-23 19:08 -33.37951 -70.80326 1554 ft 47 kts 179°
2026-04-23 19:08 -33.38247 -70.80315 1554 ft 39 kts 176°
2026-04-23 19:08 -33.38502 -70.80293 1555 ft 35 kts 175°
2026-04-23 19:09 -33.38723 -70.80272 1556 ft 30 kts 179°
2026-04-23 19:09 -33.38970 -70.80260 1556 ft 40 kts 178°
2026-04-23 19:09 -33.39263 -70.80226 1554 ft 39 kts 161°
2026-04-23 19:09 -33.39483 -70.80075 1554 ft 34 kts 147°
2026-04-23 19:10 -33.39534 -70.79957 1554 ft 12 kts 89°
2026-04-23 19:10 -33.39530 -70.79841 1555 ft 16 kts 88°
2026-04-23 19:10 -33.39523 -70.79700 1555 ft 18 kts 85°
2026-04-23 19:10 -33.39453 -70.79577 1555 ft 22 kts 17°
2026-04-23 19:11 -33.39418 -70.79410 1556 ft 22 kts 87°
2026-04-23 19:11 -33.39409 -70.79230 1556 ft 22 kts 85°
2026-04-23 19:11 -33.39334 -70.79160 1557 ft 20 kts 299°
2026-04-23 19:11 -33.39257 -70.79225 1556 ft 8 kts 295°
2026-04-23 19:12 -33.39256 -70.79237 1556 ft 0 kts 270°